This demonstration page uses our WeatherBlox Daily Observations layout. Learn more.

Hourly Observations for June 21, 2019

Temp ( °F °C ) Dew Point ( °F °C ) Humidity (%) Winds ( mph kmh ) Pressure ( in mb ) Visibility ( mi km ) Precip ( " mm )
12:15 am 00:15 Partly Cloudy 75 24 64 18 69 69 WSW 3 6 29.59 1002 10 16.09344 0 0
12:35 am 00:35 Partly Cloudy 75 24 64 18 69 69 Calm 29.59 1002 10 16.09344 0 0
12:55 am 00:55 Mostly Cloudy 73 23 64 18 74 74 SW 5 7 29.59 1002 10 16.09344 0 0
1:15 am 01:15 Cloudy 75 24 64 18 69 69 WSW 6 9 29.59 1002 10 16.09344 0 0
1:35 am 01:35 Cloudy 77 25 64 18 65 65 WNW 13 20 29.59 1002 10 16.09344 0 0
1:55 am 01:55 Cloudy 75 24 66 19 74 74 WNW 7 11 29.59 1002 10 16.09344 0 0
2:15 am 02:15 Mostly Cloudy 73 23 66 19 78 78 W 5 7 29.59 1002 10 16.09344 0 0
2:35 am 02:35 Clear 73 23 64 18 74 74 WSW 5 7 29.59 1002 10 16.09344 0 0
2:55 am 02:55 Clear 73 23 64 18 74 74 W 6 9 29.59 1002 10 16.09344 0 0
3:15 am 03:15 Clear 73 23 64 18 74 74 W 8 13 29.59 1002 10 16.09344 0 0
3:35 am 03:35 Clear 73 23 63 17 69 69 W 10 17 29.56 1001 10 16.09344 0 0
3:55 am 03:55 Clear 73 23 63 17 69 69 W 10 17 29.59 1002 10 16.09344 0 0
4:15 am 04:15 Clear 73 23 63 17 69 69 WNW 9 15 29.59 1002 10 16.09344 0 0
4:35 am 04:35 Partly Cloudy 73 23 63 17 69 69 WNW 14 22 29.59 1002 10 16.09344 0 0
4:55 am 04:55 Partly Cloudy 73 23 63 17 69 69 WNW 12 19 29.59 1002 10 16.09344 0 0
5:15 am 05:15 Mostly Cloudy 73 23 63 17 69 69 WNW 8 13 29.59 1002 10 16.09344 0 0
5:35 am 05:35 Mostly Cloudy 73 23 63 17 69 69 WNW 21 33 29.59 1002 10 16.09344 0 0
5:55 am 05:55 Mostly Cloudy 73 23 64 18 74 74 WNW 20 31 29.62 1003 10 16.09344 0 0
6:15 am 06:15 Mostly Cloudy 72 22 63 17 73 73 WNW 17 28 29.62 1003 10 16.09344 0 0
6:35 am 06:35 Partly Cloudy 72 22 63 17 73 73 NW 20 31 29.65 1004 10 16.09344 0 0
6:55 am 06:55 Partly Cloudy 72 22 63 17 73 73 WNW 21 33 29.65 1004 10 16.09344 0 0
7:15 am 07:15 Sunny 72 22 63 17 73 73 NW 22 35 29.65 1004 10 16.09344 0 0
7:35 am 07:35 Mostly Cloudy 72 22 63 17 73 73 NW 17 28 29.68 1005 10 16.09344 0 0
7:55 am 07:55 Cloudy 73 23 63 17 69 69 NW 24 39 29.68 1005 10 16.09344 0 0
8:15 am 08:15 Cloudy 72 22 63 17 73 73 NW 21 33 29.71 1006 10 16.09344 0 0
8:35 am 08:35 Cloudy 72 22 63 17 73 73 NW 17 28 29.71 1006 10 16.09344 0 0
8:55 am 08:55 Cloudy 72 22 63 17 73 73 NW 15 24 29.71 1006 10 16.09344 0 0
9:15 am 09:15 Cloudy 73 23 63 17 69 69 NNW 20 31 29.74 1007 10 16.09344 0 0
9:35 am 09:35 Mostly Cloudy 73 23 63 17 69 69 NNW 17 28 29.74 1007 10 16.09344 0 0
9:55 am 09:55 Cloudy 73 23 63 17 69 69 NNW 16 26 29.74 1007 10 16.09344 0 0
10:15 am 10:15 Cloudy 73 23 63 17 69 69 NNW 23 37 29.77 1008 10 16.09344 0 0
10:35 am 10:35 Mostly Cloudy 77 25 63 17 61 61 NW 18 30 29.77 1008 10 16.09344 0 0
10:55 am 10:55 Cloudy 73 23 63 17 69 69 NW 14 22 29.8 1009 10 16.09344 0 0
11:15 am 11:15 Cloudy 77 25 63 17 61 61 NW 17 28 29.8 1009 10 16.09344 0 0
11:35 am 11:35 Cloudy 77 25 63 17 61 61 NNW 17 28 29.8 1009 10 16.09344 0 0
11:55 am 11:55 Cloudy 75 24 63 17 65 65 NW 14 22 29.83 1010 10 16.09344 0 0
12:15 pm 12:15 Mostly Cloudy 77 25 61 16 57 57 N 21 33 29.83 1010 10 16.09344 0 0
12:35 pm 12:35 Mostly Cloudy 79 26 61 16 54 54 N 18 30 29.83 1010 10 16.09344 0 0
12:55 pm 12:55 Partly Cloudy 79 26 61 16 54 54 NNW 21 33 29.83 1010 10 16.09344 0 0
1:15 pm 13:15 Sunny 81 27 59 15 48 48 N 21 33 29.83 1010 10 16.09344 0 0
1:35 pm 13:35 Partly Cloudy 81 27 59 15 48 48 NW 18 30 29.83 1010 10 16.09344 0 0
1:55 pm 13:55 Partly Cloudy 81 27 61 16 51 51 NNW 16 26 29.83 1010 10 16.09344 0 0
2:15 pm 14:15 Partly Cloudy 81 27 59 15 48 48 N 17 28 29.83 1010 10 16.09344 0 0
2:35 pm 14:35 Sunny 81 27 59 15 48 48 N 22 35 29.83 1010 10 16.09344 0 0
2:55 pm 14:55 Partly Cloudy 81 27 59 15 48 48 N 16 26 29.85 1011 10 16.09344 0 0
3:15 pm 15:15 Partly Cloudy 82 28 61 16 48 48 NW 17 28 29.85 1011 10 16.09344 0 0
3:35 pm 15:35 Partly Cloudy 81 27 59 15 48 48 NNW 21 33 29.85 1011 10 16.09344 0 0
3:55 pm 15:55 Sunny 81 27 59 15 48 48 NNW 15 24 29.85 1011 10 16.09344 0 0
4:15 pm 16:15 Sunny 82 28 59 15 45 45 NW 16 26 29.85 1011 10 16.09344 0 0
4:35 pm 16:35 Partly Cloudy 82 28 59 15 45 45 NNW 17 28 29.88 1012 10 16.09344 0 0
4:55 pm 16:55 Partly Cloudy 82 28 59 15 45 45 NW 10 17 29.88 1012 10 16.09344 0 0
5:15 pm 17:15 Partly Cloudy 82 28 59 15 45 45 NW 14 22 29.88 1012 10 16.09344 0 0
5:35 pm 17:35 Partly Cloudy 81 27 59 15 48 48 NNW 10 17 29.85 1011 10 16.09344 0 0
5:55 pm 17:55 Partly Cloudy 81 27 57 14 45 45 NW 18 30 29.85 1011 10 16.09344 0 0
6:15 pm 18:15 Partly Cloudy 81 27 57 14 45 45 NW 12 19 29.88 1012 10 16.09344 0 0
6:35 pm 18:35 Partly Cloudy 81 27 57 14 45 45 WNW 14 22 29.88 1012 10 16.09344 0 0
6:55 pm 18:55 Sunny 81 27 55 13 42 42 NNW 14 22 29.88 1012 10 16.09344 0 0
7:15 pm 19:15 Sunny 81 27 55 13 42 42 NW 15 24 29.88 1012 10 16.09344 0 0
7:35 pm 19:35 Sunny 79 26 55 13 45 45 NNW 9 15 29.88 1012 10 16.09344 0 0
7:55 pm 19:55 Sunny 79 26 55 13 45 45 NNW 8 13 29.91 1013 10 16.09344 0 0
8:15 pm 20:15 Sunny 77 25 55 13 47 47 NNW 6 9 29.91 1013 10 16.09344 0 0
8:35 pm 20:35 Sunny 73 23 55 13 53 53 NW 8 13 29.91 1013 10 16.09344 0 0
8:55 pm 20:55 Clear 73 23 55 13 53 53 NW 7 11 29.91 1013 10 16.09344 0 0
9:15 pm 21:15 Clear 73 23 55 13 53 53 WNW 7 11 29.94 1014 10 16.09344 0 0
9:35 pm 21:35 Clear 72 22 55 13 57 57 NW 7 11 29.94 1014 10 16.09344 0 0
9:55 pm 21:55 Clear 72 22 55 13 57 57 NW 10 17 29.94 1014 10 16.09344 0 0
10:15 pm 22:15 Clear 72 22 55 13 57 57 NW 10 17 29.94 1014 10 16.09344 0 0
10:35 pm 22:35 Clear 72 22 55 13 57 57 NW 6 9 29.94 1014 10 16.09344 0 0
10:55 pm 22:55 Clear 72 22 54 12 53 53 Calm 29.97 1015 10 16.09344 0 0
11:15 pm 23:15 Clear 70 21 55 13 60 60 WNW 3 6 29.97 1015 10 16.09344 0 0
11:35 pm 23:35 Clear 70 21 55 13 60 60 NNW 6 9 29.97 1015 10 16.09344 0 0
11:55 pm 23:55 Clear 70 21 55 13 60 60 Calm 29.97 1015 10 16.09344 0 0

Powered by AerisWeather